Time[GMT],salinity[psu](1m),sigma_t[kg/m^3](1m),conductivity[msiemens/cm](1m),temperature[C](1m)
2019-10-10 18:00,34.326,20.970,58.127,30.74
2019-10-10 19:00,34.291,20.876,58.284,30.94
2019-10-10 20:00,34.229,20.727,58.501,31.23
2019-10-10 21:00,34.299,20.921,58.177,30.82
2019-10-10 22:00,34.292,21.101,57.600,30.28
2019-10-10 23:00,34.289,21.170,57.376,30.08
2019-10-11 00:00,34.282,21.199,57.259,29.97
2019-10-11 01:00,34.281,21.216,57.202,29.92
2019-10-11 02:00,34.274,21.238,57.111,29.84
2019-10-11 03:00,34.270,21.249,57.059,29.80
2019-10-11 04:00,34.268,21.262,57.014,29.76
2019-10-11 05:00,34.269,21.277,56.969,29.72
2019-10-11 06:00,34.268,21.294,56.914,29.66
2019-10-11 07:00,34.266,21.295,56.902,29.66
2019-10-11 08:00,34.265,21.307,56.864,29.62
2019-10-11 09:00,34.261,21.304,56.859,29.62
2019-10-11 10:00,34.266,21.319,56.827,29.59
2019-10-11 11:00,34.270,21.313,56.861,29.61
2019-10-11 12:00,34.271,21.312,56.866,29.62
2019-10-11 13:00,34.272,21.299,56.913,29.66
2019-10-11 14:00,34.269,21.266,57.002,29.75
2019-10-11 15:00,34.268,21.230,57.111,29.85
2019-10-11 16:00,34.267,21.213,57.161,29.90
2019-10-11 17:00,34.270,21.163,57.328,30.06
2019-10-11 18:00,34.278,21.140,57.424,30.14
2019-10-11 19:00,34.289,21.154,57.427,30.12
2019-10-11 20:00,34.280,21.144,57.419,30.13
2019-10-11 21:00,34.280,21.158,57.376,30.09
2019-10-11 22:00,34.278,21.187,57.283,30.00
2019-10-11 23:00,34.283,21.211,57.228,29.94
2019-10-12 00:00,34.283,21.223,57.192,29.91
2019-10-12 01:00,34.285,21.240,57.145,29.86
2019-10-12 02:00,34.288,21.264,57.083,29.80
2019-10-12 03:00,34.293,21.281,57.049,29.76
2019-10-12 04:00,34.280,21.273,57.024,29.75
2019-10-12 05:00,34.284,21.281,57.016,29.74
2019-10-12 06:00,34.277,21.276,57.004,29.74
2019-10-12 07:00,34.284,21.282,57.013,29.74
2019-10-12 08:00,34.280,21.287,56.982,29.71
2019-10-12 09:00,34.287,21.298,56.975,29.70
2019-10-12 10:00,34.285,21.284,57.007,29.73
2019-10-12 11:00,34.278,21.289,56.967,29.70
2019-10-12 12:00,34.282,21.290,56.978,29.71
2019-10-12 13:00,34.276,21.265,57.033,29.77
2019-10-12 14:00,34.283,21.198,57.268,29.98
2019-10-12 15:00,34.276,21.124,57.467,30.18
2019-10-12 16:00,34.300,21.066,57.736,30.40
2019-10-12 17:00,34.363,21.043,58.048,30.61
2019-10-12 18:00,34.358,20.988,58.194,30.75
2019-10-12 19:00,34.267,21.041,57.689,30.40
2019-10-12 20:00,34.271,21.076,57.595,30.31
2019-10-12 21:00,34.309,21.134,57.560,30.22
2019-10-12 22:00,34.306,21.146,57.514,30.18
2019-10-12 23:00,34.302,21.168,57.432,30.11
2019-10-13 00:00,34.299,21.181,57.382,30.07
2019-10-13 01:00,34.293,21.211,57.263,29.96
2019-10-13 02:00,34.278,21.216,57.194,29.92
2019-10-13 03:00,34.273,21.226,57.145,29.88
2019-10-13 04:00,34.260,21.221,57.108,29.86
2019-10-13 05:00,34.257,21.236,57.051,29.81
2019-10-13 06:00,34.250,21.242,57.005,29.78
2019-10-13 07:00,34.236,21.238,56.963,29.76
2019-10-13 08:00,34.227,21.250,56.894,29.70
2019-10-13 09:00,34.230,21.263,56.866,29.67
2019-10-13 10:00,34.218,21.264,56.813,29.64
2019-10-13 11:00,34.211,21.262,56.798,29.63
2019-10-13 12:00,34.211,21.257,56.812,29.65
2019-10-13 13:00,34.212,21.248,56.842,29.68
2019-10-13 14:00,34.212,21.211,56.957,29.78
2019-10-13 15:00,34.212,21.184,57.040,29.86
2019-10-13 16:00,34.213,21.158,57.124,29.94
2019-10-13 17:00,34.213,21.124,57.229,30.04
2019-10-13 18:00,34.219,21.093,57.349,30.15
2019-10-13 19:00,34.220,21.120,57.268,30.07
2019-10-13 20:00,34.215,21.129,57.223,30.03
2019-10-13 21:00,34.211,21.134,57.192,30.01
2019-10-13 22:00,34.216,21.163,57.122,29.94
2019-10-13 23:00,34.215,21.191,57.033,29.85
2019-10-14 00:00,34.209,21.213,56.939,29.77
2019-10-14 01:00,34.201,21.199,56.952,29.80
2019-10-14 02:00,34.206,21.223,56.898,29.74
2019-10-14 03:00,34.209,21.221,56.916,29.75
2019-10-14 04:00,34.207,21.234,56.870,29.71
2019-10-14 05:00,34.211,21.227,56.904,29.74
2019-10-14 06:00,34.207,21.229,56.882,29.72
2019-10-14 07:00,34.208,21.231,56.881,29.72
2019-10-14 08:00,34.207,21.233,56.871,29.71
2019-10-14 09:00,34.208,21.238,56.859,29.70
2019-10-14 10:00,34.208,21.238,56.858,29.70
2019-10-14 11:00,34.211,21.246,56.847,29.68
2019-10-14 12:00,34.214,21.244,56.866,29.69
2019-10-14 13:00,34.215,21.237,56.886,29.71
2019-10-14 14:00,34.216,21.220,56.947,29.77
2019-10-14 15:00,34.219,21.186,57.063,29.88
2019-10-14 16:00,34.228,21.161,57.173,29.97
2019-10-14 17:00,34.235,21.102,57.383,30.16
2019-10-14 18:00,34.229,21.103,57.357,30.14
2019-10-14 19:00,34.231,21.116,57.324,30.11
2019-10-14 20:00,34.234,21.128,57.294,30.08
2019-10-14 21:00,34.250,21.148,57.295,30.05
2019-10-14 22:00,34.246,21.161,57.242,30.01
2019-10-14 23:00,34.245,21.203,57.107,29.88
2019-10-15 00:00,34.242,21.209,57.076,29.86
2019-10-15 01:00,34.246,21.231,57.027,29.80
2019-10-15 02:00,34.244,21.244,56.977,29.76
2019-10-15 03:00,34.244,21.246,56.971,29.75
2019-10-15 04:00,34.249,21.251,56.975,29.75
2019-10-15 05:00,34.261,21.264,56.978,29.74
2019-10-15 06:00,34.269,21.266,57.001,29.75
2019-10-15 07:00,34.270,21.283,56.958,29.70
2019-10-15 08:00,34.280,21.271,57.031,29.76
2019-10-15 09:00,34.281,21.281,57.000,29.73
2019-10-15 10:00,34.294,21.286,57.038,29.75
2019-10-15 11:00,34.287,21.287,57.006,29.73
2019-10-15 12:00,34.286,21.287,57.004,29.73
2019-10-15 13:00,34.287,21.279,57.033,29.75
2019-10-15 14:00,34.292,21.244,57.159,29.86
2019-10-15 15:00,34.299,21.160,57.446,30.13
2019-10-15 16:00,34.306,21.110,57.627,30.29
2019-10-15 17:00,34.344,21.078,57.866,30.46
2019-10-15 18:00,34.316,21.033,57.898,30.53
2019-10-15 19:00,34.403,20.795,58.951,31.41
2019-10-15 20:00,34.247,21.037,57.625,30.37
2019-10-15 21:00,33.844,20.864,56.633,30.00
2019-10-15 22:00,34.065,21.009,57.021,30.05
2019-10-15 23:00,34.187,21.138,57.085,29.94
2019-10-16 00:00,34.187,21.103,57.196,30.05
2019-10-16 01:00,34.118,21.085,56.991,29.95
2019-10-16 02:00,34.275,21.192,57.254,29.98
2019-10-16 03:00,34.307,21.241,57.222,29.90
2019-10-16 04:00,34.325,21.270,57.202,29.86
2019-10-16 05:00,34.337,21.274,57.238,29.88
2019-10-16 06:00,34.351,21.274,57.290,29.91
2019-10-16 07:00,34.379,21.287,57.355,29.93
2019-10-16 08:00,34.408,21.304,57.414,29.94
2019-10-16 09:00,34.378,21.305,57.297,29.87
2019-10-16 10:00,34.395,21.347,57.232,29.79
2019-10-16 11:00,34.395,21.355,57.207,29.76
2019-10-16 12:00,34.396,21.345,57.242,29.80
2019-10-16 13:00,34.400,21.340,57.273,29.82
2019-10-16 14:00,34.403,21.302,57.401,29.94
2019-10-16 15:00,34.402,21.254,57.546,30.08
2019-10-16 16:00,34.412,21.119,58.000,30.49
2019-10-16 17:00,34.451,21.118,58.152,30.58
2019-10-16 18:00,34.422,20.987,58.438,30.89
2019-10-16 19:00,34.407,20.924,58.575,31.05
2019-10-16 20:00,34.424,21.002,58.403,30.86
2019-10-16 21:00,34.428,21.070,58.212,30.67
2019-10-16 22:00,34.414,21.188,57.795,30.30
2019-10-16 23:00,34.412,21.221,57.686,30.20
2019-10-17 00:00,34.412,21.256,57.578,30.09
2019-10-17 01:00,34.408,21.273,57.510,30.03
2019-10-17 02:00,34.401,21.281,57.457,29.99
2019-10-17 03:00,34.397,21.294,57.406,29.95
2019-10-17 04:00,34.399,21.317,57.338,29.88
2019-10-17 05:00,34.395,21.318,57.322,29.87
2019-10-17 06:00,34.402,21.327,57.320,29.86
2019-10-17 07:00,34.360,21.302,57.239,29.84
2019-10-17 08:00,34.378,21.323,57.244,29.82
2019-10-17 09:00,34.391,21.341,57.235,29.80
2019-10-17 10:00,34.353,21.318,57.163,29.78
2019-10-17 11:00,34.354,21.324,57.149,29.77
2019-10-17 12:00,34.342,21.299,57.179,29.81
2019-10-17 13:00,34.334,21.269,57.240,29.88
2019-10-17 14:00,34.337,21.252,57.304,29.94
2019-10-17 15:00,34.340,21.232,57.380,30.01
2019-10-17 16:00,34.341,21.218,57.426,30.05
2019-10-17 17:00,34.345,21.197,57.504,30.12
2019-10-17 18:00,34.347,21.192,57.528,30.14
2019-10-17 19:00,34.346,21.224,57.427,30.04
2019-10-17 20:00,34.351,21.212,57.485,30.09
2019-10-17 21:00,34.363,21.217,57.510,30.10
2019-10-17 22:00,34.351,21.245,57.381,29.99
2019-10-17 23:00,34.351,21.255,57.347,29.96
2019-10-18 00:00,34.352,21.262,57.332,29.94
2019-10-18 01:00,34.356,21.272,57.315,29.92
2019-10-18 02:00,34.351,21.281,57.269,29.89
2019-10-18 03:00,34.349,21.280,57.266,29.89
2019-10-18 04:00,34.357,21.293,57.255,29.86
2019-10-18 05:00,34.359,21.301,57.235,29.84
2019-10-18 06:00,34.360,21.305,57.231,29.84
2019-10-18 07:00,34.362,21.316,57.205,29.81
2019-10-18 08:00,34.366,21.323,57.196,29.80
2019-10-18 09:00,34.364,21.329,57.168,29.77
2019-10-18 10:00,34.362,21.335,57.142,29.75
2019-10-18 11:00,34.365,21.338,57.147,29.75
2019-10-18 12:00,34.372,21.350,57.132,29.73
2019-10-18 13:00,34.362,21.344,57.116,29.72
2019-10-18 14:00,34.363,21.333,57.154,29.76
2019-10-18 15:00,34.345,21.324,57.110,29.74
2019-10-18 16:00,34.354,21.301,57.216,29.83
2019-10-18 17:00,34.330,21.269,57.227,29.88
2019-10-18 18:00,34.345,21.305,57.170,29.80
2019-10-18 19:00,34.347,21.294,57.214,29.84
2019-10-18 20:00,34.352,21.303,57.205,29.82
2019-10-18 21:00,34.362,21.315,57.206,29.81
2019-10-18 22:00,34.365,21.323,57.194,29.80
2019-10-18 23:00,34.363,21.325,57.181,29.78
2019-10-19 00:00,34.365,21.326,57.183,29.78
2019-10-19 01:00,34.367,21.330,57.176,29.78
2019-10-19 02:00,34.365,21.330,57.172,29.77
2019-10-19 03:00,34.367,21.331,57.176,29.77
2019-10-19 04:00,34.372,21.337,57.173,29.77
2019-10-19 05:00,34.372,21.338,57.173,29.77
2019-10-19 06:00,34.380,21.348,57.171,29.75
2019-10-19 07:00,34.376,21.344,57.170,29.76
2019-10-19 08:00,34.383,21.353,57.167,29.74
2019-10-19 09:00,34.387,21.350,57.190,29.76
2019-10-19 10:00,34.394,21.348,57.225,29.78
2019-10-19 11:00,34.413,21.368,57.236,29.77
2019-10-19 12:00,34.417,21.363,57.263,29.79
2019-10-19 13:00,34.417,21.370,57.245,29.77
2019-10-19 14:00,34.419,21.360,57.282,29.80
2019-10-19 15:00,34.419,21.352,57.307,29.83
2019-10-19 16:00,34.418,21.348,57.315,29.84
2019-10-19 17:00,34.416,21.343,57.323,29.85
2019-10-19 18:00,34.410,21.345,57.297,29.83
2019-10-19 19:00,34.411,21.343,57.305,29.84
2019-10-19 20:00,34.381,21.322,57.255,29.83
2019-10-19 21:00,34.364,21.320,57.199,29.80
2019-10-19 22:00,34.367,21.330,57.178,29.78
2019-10-19 23:00,34.368,21.337,57.161,29.76
2019-10-20 00:00,34.378,21.347,57.165,29.75
2019-10-20 01:00,34.381,21.342,57.196,29.77
2019-10-20 02:00,34.379,21.345,57.175,29.76
2019-10-20 03:00,34.380,21.346,57.175,29.76
2019-10-20 04:00,34.380,21.349,57.169,29.75
2019-10-20 05:00,34.381,21.352,57.164,29.74
2019-10-20 06:00,34.383,21.360,57.147,29.72
2019-10-20 07:00,34.381,21.365,57.123,29.71
2019-10-20 08:00,34.385,21.371,57.120,29.70
2019-10-20 09:00,34.388,21.375,57.115,29.69
2019-10-20 10:00,34.388,21.378,57.107,29.68
2019-10-20 11:00,34.384,21.374,57.104,29.68
2019-10-20 12:00,34.381,21.366,57.122,29.70
2019-10-20 13:00,34.380,21.354,57.151,29.73
2019-10-20 14:00,34.384,21.351,57.178,29.75
2019-10-20 15:00,34.369,21.331,57.181,29.78
2019-10-20 16:00,34.372,21.319,57.232,29.82
2019-10-20 17:00,34.374,21.320,57.232,29.82
2019-10-20 18:00,34.375,21.311,57.268,29.85
2019-10-20 19:00,34.378,21.308,57.287,29.87
2019-10-20 20:00,34.378,21.311,57.278,29.86
2019-10-20 21:00,34.380,21.324,57.246,29.82
2019-10-20 22:00,34.377,21.329,57.220,29.80
2019-10-20 23:00,34.376,21.330,57.211,29.80
2019-10-21 00:00,34.368,21.325,57.198,29.79
2019-10-21 01:00,34.372,21.340,57.164,29.76
2019-10-21 02:00,34.376,21.342,57.177,29.76
2019-10-21 03:00,34.378,21.341,57.184,29.77
2019-10-21 04:00,34.377,21.343,57.177,29.76
2019-10-21 05:00,34.378,21.348,57.164,29.75
2019-10-21 06:00,34.376,21.351,57.148,29.74
2019-10-21 07:00,34.377,21.357,57.133,29.72
2019-10-21 08:00,34.378,21.364,57.113,29.70
2019-10-21 09:00,34.376,21.359,57.121,29.71
2019-10-21 10:00,34.379,21.366,57.114,29.70
2019-10-21 11:00,34.380,21.367,57.114,29.70
2019-10-21 12:00,34.383,21.371,57.110,29.69
2019-10-21 13:00,34.383,21.369,57.118,29.70
2019-10-21 14:00,34.382,21.361,57.136,29.72
2019-10-21 15:00,34.383,21.355,57.162,29.74
2019-10-21 16:00,34.385,21.352,57.178,29.75
2019-10-21 17:00,34.388,21.337,57.237,29.80
2019-10-21 18:00,34.389,21.335,57.246,29.81
2019-10-21 19:00,34.389,21.334,57.250,29.81
2019-10-21 20:00,34.388,21.334,57.244,29.81
2019-10-21 21:00,34.390,21.340,57.235,29.80
2019-10-21 22:00,34.392,21.348,57.219,29.78
2019-10-21 23:00,34.396,21.357,57.204,29.76
2019-10-22 00:00,34.401,21.363,57.207,29.76
2019-10-22 01:00,34.403,21.366,57.202,29.75
2019-10-22 02:00,34.407,21.370,57.206,29.75
2019-10-22 03:00,34.406,21.375,57.184,29.73
2019-10-22 04:00,34.405,21.373,57.191,29.74
2019-10-22 05:00,34.403,21.374,57.179,29.73
2019-10-22 06:00,34.406,21.380,57.173,29.72
2019-10-22 07:00,34.406,21.384,57.159,29.70
2019-10-22 08:00,34.405,21.382,57.160,29.71
2019-10-22 09:00,34.410,21.385,57.173,29.71
2019-10-22 10:00,34.407,21.388,57.151,29.69
2019-10-22 11:00,34.411,21.392,57.152,29.69
2019-10-22 12:00,34.237,21.296,56.787,29.59
2019-10-22 13:00,34.356,21.366,57.024,29.65
2019-10-22 14:00,34.385,21.377,57.097,29.68
2019-10-22 15:00,34.398,21.383,57.132,29.69
2019-10-22 16:00,34.405,21.373,57.190,29.73
2019-10-22 17:00,34.404,21.359,57.229,29.77
2019-10-22 18:00,34.406,21.350,57.264,29.80
2019-10-22 19:00,34.406,21.352,57.255,29.80
2019-10-22 20:00,34.402,21.354,57.239,29.79
2019-10-22 21:00,34.395,21.358,57.197,29.76
2019-10-22 22:00,34.389,21.365,57.152,29.72
2019-10-22 23:00,34.372,21.359,57.108,29.70
2019-10-23 00:00,34.375,21.369,57.085,29.68
2019-10-23 01:00,34.373,21.371,57.075,29.67
2019-10-23 02:00,34.226,21.274,56.816,29.63
2019-10-23 03:00,34.294,21.332,56.896,29.61
2019-10-23 04:00,34.313,21.352,56.907,29.59
2019-10-23 05:00,34.344,21.355,57.014,29.65
2019-10-23 06:00,34.345,21.372,56.964,29.60
2019-10-23 07:00,34.343,21.364,56.980,29.62
2019-10-23 08:00,34.348,21.368,56.988,29.62
2019-10-23 09:00,34.350,21.379,56.960,29.59
2019-10-23 10:00,34.356,21.386,56.963,29.59
2019-10-23 11:00,34.370,21.385,57.017,29.62
2019-10-23 12:00,34.378,21.390,57.032,29.62
2019-10-23 13:00,34.376,21.387,57.033,29.63
2019-10-23 14:00,34.379,21.378,57.077,29.66
2019-10-23 15:00,34.384,21.366,57.128,29.71
2019-10-23 16:00,34.388,21.351,57.194,29.76
2019-10-23 17:00,34.383,21.349,57.182,29.76
2019-10-23 18:00,34.381,21.366,57.119,29.70
2019-10-23 19:00,34.379,21.361,57.129,29.71
2019-10-23 20:00,34.384,21.361,57.145,29.72
2019-10-23 21:00,34.387,21.365,57.145,29.72
2019-10-23 22:00,34.379,21.369,57.104,29.69
2019-10-23 23:00,34.378,21.375,57.080,29.67
2019-10-24 00:00,34.378,21.381,57.060,29.65
2019-10-24 01:00,34.374,21.379,57.053,29.65
2019-10-24 02:00,34.372,21.383,57.032,29.63
2019-10-24 03:00,34.371,21.382,57.031,29.63
2019-10-24 04:00,34.372,21.393,57.001,29.60
2019-10-24 05:00,34.383,21.400,57.024,29.61
2019-10-24 06:00,34.391,21.398,57.055,29.63
2019-10-24 07:00,34.389,21.404,57.032,29.61
2019-10-24 08:00,34.392,21.402,57.051,29.62
2019-10-24 09:00,34.391,21.397,57.061,29.63
2019-10-24 10:00,34.403,21.410,57.065,29.62
2019-10-24 11:00,34.404,21.408,57.076,29.63
2019-10-24 12:00,34.399,21.409,57.054,29.61
2019-10-24 13:00,34.396,21.412,57.035,29.60
2019-10-24 14:00,34.398,21.406,57.059,29.62
2019-10-24 15:00,34.397,21.402,57.070,29.63
2019-10-24 16:00,34.397,21.398,57.081,29.64
2019-10-24 17:00,34.392,21.395,57.071,29.64
2019-10-24 18:00,34.392,21.392,57.081,29.65
2019-10-24 19:00,34.394,21.397,57.072,29.64
2019-10-24 20:00,34.397,21.406,57.055,29.62
2019-10-24 21:00,34.399,21.411,57.048,29.61
2019-10-24 22:00,34.403,21.416,57.046,29.60
2019-10-24 23:00,34.408,21.419,57.057,29.60
2019-10-25 00:00,34.409,21.419,57.059,29.61
2019-10-25 01:00,34.411,21.424,57.054,29.60
2019-10-25 02:00,34.415,21.423,57.069,29.61
2019-10-25 03:00,34.419,21.428,57.074,29.60
2019-10-25 04:00,34.419,21.438,57.043,29.58
2019-10-25 05:00,34.421,21.446,57.024,29.55
2019-10-25 06:00,34.421,21.442,57.034,29.56
2019-10-25 07:00,34.423,21.444,57.036,29.56
2019-10-25 08:00,34.429,21.456,57.022,29.54
2019-10-25 09:00,34.428,21.455,57.021,29.54
2019-10-25 10:00,34.430,21.459,57.015,29.53
2019-10-25 11:00,34.428,21.457,57.017,29.54
2019-10-25 12:00,34.438,21.464,57.030,29.54
2019-10-25 13:00,34.438,21.463,57.033,29.54
2019-10-25 14:00,34.437,21.457,57.047,29.55
2019-10-25 15:00,34.431,21.452,57.042,29.56
2019-10-25 16:00,34.429,21.442,57.068,29.59
2019-10-25 17:00,34.433,21.429,57.124,29.63
2019-10-25 18:00,34.433,21.422,57.140,29.65
2019-10-25 19:00,34.429,21.417,57.143,29.66
2019-10-25 20:00,34.439,21.432,57.138,29.64
2019-10-25 21:00,34.435,21.437,57.103,29.61
2019-10-25 22:00,34.435,21.447,57.072,29.58
2019-10-25 23:00,34.434,21.450,57.059,29.57
2019-10-26 00:00,34.436,21.461,57.035,29.54
2019-10-26 01:00,34.436,21.455,57.055,29.56
2019-10-26 02:00,34.436,21.459,57.040,29.55
2019-10-26 03:00,34.441,21.467,57.033,29.54
2019-10-26 04:00,34.440,21.464,57.040,29.54
2019-10-26 05:00,34.444,21.470,57.033,29.53
2019-10-26 06:00,34.442,21.472,57.022,29.52
2019-10-26 07:00,34.437,21.465,57.025,29.53
2019-10-26 08:00,34.425,21.467,56.972,29.50
2019-10-26 09:00,34.425,21.477,56.943,29.47
2019-10-26 10:00,34.429,21.485,56.932,29.46
2019-10-26 11:00,34.428,21.478,56.950,29.47
2019-10-26 12:00,34.432,21.477,56.967,29.49
2019-10-26 13:00,34.447,21.477,57.024,29.52
2019-10-26 14:00,34.451,21.471,57.062,29.55
2019-10-26 15:00,34.452,21.462,57.092,29.58
2019-10-26 16:00,34.454,21.451,57.134,29.61
2019-10-26 17:00,34.469,21.449,57.197,29.65
2019-10-26 18:00,34.471,21.441,57.229,29.68
2019-10-26 19:00,34.467,21.446,57.200,29.66
2019-10-26 20:00,34.470,21.444,57.215,29.67
2019-10-26 21:00,34.466,21.455,57.165,29.63
2019-10-26 22:00,34.461,21.467,57.110,29.58
2019-10-26 23:00,34.464,21.466,57.125,29.59
2019-10-27 00:00,34.468,21.475,57.113,29.57
2019-10-27 01:00,34.461,21.468,57.104,29.58
2019-10-27 02:00,34.456,21.475,57.068,29.55
2019-10-27 03:00,34.453,21.470,57.069,29.55
2019-10-27 04:00,34.448,21.481,57.015,29.51
2019-10-27 05:00,34.446,21.481,57.009,29.51
2019-10-27 06:00,34.434,21.479,56.971,29.49
2019-10-27 07:00,34.439,21.482,56.979,29.49
2019-10-27 08:00,34.434,21.481,56.963,29.48
2019-10-27 09:00,34.446,21.496,56.960,29.46
2019-10-27 10:00,34.438,21.482,56.976,29.49
2019-10-27 11:00,34.444,21.491,56.970,29.47
2019-10-27 12:00,34.436,21.486,56.955,29.47
2019-10-27 13:00,34.449,21.488,57.000,29.49
2019-10-27 14:00,34.456,21.485,57.035,29.52
2019-10-27 15:00,34.477,21.483,57.120,29.57
2019-10-27 16:00,34.473,21.468,57.150,29.60
2019-10-27 17:00,34.477,21.455,57.208,29.65
2019-10-27 18:00,34.481,21.466,57.188,29.63
2019-10-27 19:00,34.507,21.467,57.283,29.68
2019-10-27 20:00,34.466,21.446,57.196,29.65
2019-10-27 21:00,34.472,21.471,57.137,29.59
2019-10-27 22:00,34.471,21.483,57.100,29.56
2019-10-27 23:00,34.470,21.485,57.088,29.55
2019-10-28 00:00,34.472,21.485,57.095,29.55
2019-10-28 01:00,34.472,21.490,57.081,29.54
2019-10-28 02:00,34.478,21.500,57.070,29.52
2019-10-28 03:00,34.483,21.504,57.078,29.52
2019-10-28 04:00,34.491,21.510,57.090,29.52
2019-10-28 05:00,34.495,21.512,57.099,29.52
2019-10-28 06:00,34.499,21.518,57.095,29.51
2019-10-28 07:00,34.498,21.522,57.077,29.50
2019-10-28 08:00,34.500,21.523,57.083,29.50
2019-10-28 09:00,34.513,21.535,57.098,29.50
2019-10-28 10:00,34.517,21.539,57.098,29.49
2019-10-28 11:00,34.533,21.539,57.161,29.53
2019-10-28 12:00,34.538,21.545,57.159,29.52
2019-10-28 13:00,34.544,21.545,57.184,29.53
2019-10-28 14:00,34.553,21.540,57.234,29.57
2019-10-28 15:00,34.545,21.522,57.258,29.60
2019-10-28 16:00,34.533,21.510,57.250,29.61
2019-10-28 17:00,34.537,21.504,57.286,29.64
2019-10-28 18:00,34.534,21.508,57.259,29.62
2019-10-28 19:00,34.530,21.525,57.193,29.56
2019-10-28 20:00,34.530,21.537,57.157,29.53
2019-10-28 21:00,34.526,21.542,57.125,29.50
2019-10-28 22:00,34.558,21.563,57.178,29.51
2019-10-28 23:00,34.576,21.563,57.249,29.55
2019-10-29 00:00,34.578,21.568,57.240,29.54
2019-10-29 01:00,34.581,21.579,57.219,29.52
2019-10-29 02:00,34.596,21.590,57.238,29.51
2019-10-29 03:00,34.597,21.597,57.221,29.50
2019-10-29 04:00,34.599,21.597,57.229,29.50
2019-10-29 05:00,34.596,21.601,57.203,29.48
2019-10-29 06:00,34.596,21.608,57.181,29.46
2019-10-29 07:00,34.602,21.616,57.183,29.45
2019-10-29 08:00,34.612,21.629,57.178,29.44
2019-10-29 09:00,34.613,21.648,57.122,29.38
2019-10-29 10:00,34.630,21.650,57.181,29.41
2019-10-29 11:00,34.627,21.661,57.136,29.37
2019-10-29 12:00,34.640,21.665,57.171,29.39
2019-10-29 13:00,34.641,21.661,57.189,29.41
2019-10-29 14:00,34.637,21.657,57.185,29.41
2019-10-29 15:00,34.625,21.643,57.186,29.42
2019-10-29 16:00,34.636,21.623,57.291,29.51
2019-10-29 17:00,34.631,21.599,57.345,29.57
2019-10-29 18:00,34.638,21.593,57.392,29.60
2019-10-29 19:00,34.622,21.575,57.387,29.62
2019-10-29 20:00,34.612,21.575,57.349,29.60
2019-10-29 21:00,34.603,21.574,57.316,29.58
2019-10-29 22:00,34.605,21.586,57.285,29.55
2019-10-29 23:00,34.598,21.579,57.282,29.55
2019-10-30 00:00,34.606,21.596,57.261,29.52
2019-10-30 01:00,34.608,21.607,57.235,29.49
2019-10-30 02:00,34.600,21.609,57.197,29.47
2019-10-30 03:00,34.599,21.613,57.178,29.45
2019-10-30 04:00,34.602,21.624,57.156,29.43
2019-10-30 05:00,34.603,21.628,57.151,29.42
2019-10-30 06:00,34.612,21.642,57.138,29.40
2019-10-30 07:00,34.626,21.656,57.145,29.38
2019-10-30 08:00,34.627,21.670,57.109,29.35
2019-10-30 09:00,34.628,21.671,57.110,29.35
2019-10-30 10:00,34.626,21.674,57.092,29.33
2019-10-30 11:00,34.633,21.690,57.068,29.30
2019-10-30 12:00,34.657,21.708,57.104,29.30
2019-10-30 13:00,34.657,21.702,57.123,29.32
2019-10-30 14:00,34.657,21.703,57.119,29.32
2019-10-30 15:00,34.656,21.691,57.154,29.35
2019-10-30 16:00,34.664,21.666,57.262,29.44
2019-10-30 17:00,34.664,21.649,57.312,29.49
2019-10-30 18:00,34.665,21.638,57.356,29.53
2019-10-30 19:00,34.663,21.613,57.422,29.59
2019-10-30 20:00,34.663,21.622,57.395,29.57
2019-10-30 21:00,34.664,21.627,57.384,29.56
2019-10-30 22:00,34.661,21.646,57.313,29.49
2019-10-30 23:00,34.671,21.662,57.300,29.47
2019-10-31 00:00,34.672,21.659,57.311,29.48
2019-10-31 01:00,34.676,21.669,57.297,29.46
2019-10-31 02:00,34.673,21.681,57.248,29.42
2019-10-31 03:00,34.666,21.679,57.229,29.41
2019-10-31 04:00,34.664,21.685,57.200,29.38
2019-10-31 05:00,34.662,21.687,57.189,29.38
2019-10-31 06:00,34.655,21.686,57.162,29.36
2019-10-31 07:00,34.655,21.695,57.138,29.34
2019-10-31 08:00,34.651,21.689,57.139,29.34
2019-10-31 09:00,34.653,21.691,57.142,29.34
2019-10-31 10:00,34.658,21.706,57.115,29.31
2019-10-31 11:00,34.664,21.705,57.139,29.33
2019-10-31 12:00,34.671,21.707,57.160,29.34
2019-10-31 13:00,34.672,21.702,57.178,29.35
2019-10-31 14:00,34.671,21.696,57.193,29.37
2019-10-31 15:00,34.668,21.680,57.234,29.41
2019-10-31 16:00,34.672,21.665,57.293,29.46
2019-10-31 17:00,34.670,21.645,57.350,29.52
2019-10-31 18:00,34.667,21.649,57.326,29.50
2019-10-31 19:00,34.667,21.654,57.308,29.48
2019-10-31 20:00,34.665,21.655,57.299,29.48
2019-10-31 21:00,34.664,21.660,57.280,29.46
2019-10-31 22:00,34.662,21.662,57.268,29.45
2019-10-31 23:00,34.665,21.671,57.249,29.43
2019-11-01 00:00,34.659,21.679,57.201,29.39
2019-11-01 01:00,34.659,21.686,57.180,29.37
2019-11-01 02:00,34.661,21.693,57.165,29.36
2019-11-01 03:00,34.663,21.687,57.193,29.38
2019-11-01 04:00,34.665,21.692,57.184,29.37
2019-11-01 05:00,34.595,21.652,57.041,29.33
2019-11-01 06:00,34.642,21.693,57.092,29.31
2019-11-01 07:00,34.650,21.700,57.100,29.31
2019-11-01 08:00,34.655,21.701,57.116,29.32
2019-11-01 09:00,34.658,21.696,57.147,29.34
2019-11-01 10:00,34.658,21.705,57.117,29.31
2019-11-01 11:00,34.660,21.711,57.105,29.30
2019-11-01 12:00,34.665,21.718,57.102,29.29
2019-11-01 13:00,34.672,21.713,57.145,29.32
2019-11-01 14:00,34.676,21.694,57.221,29.39
2019-11-01 15:00,34.675,21.696,57.212,29.38
2019-11-01 16:00,34.678,21.700,57.211,29.37
2019-11-01 17:00,34.680,21.699,57.220,29.38
2019-11-01 18:00,34.682,21.691,57.252,29.41
2019-11-01 19:00,34.683,21.692,57.252,29.41
2019-11-01 20:00,34.687,21.696,57.253,29.40